Location: Aldenham
(51.6667°N, 0.3500°W)
Time: 00:20:27
(UTC+00:00)

A-11 Canister half - Pass Details

Date: 18 February 2026
Orbit: 1512 x 1687 km, 47.2° (Epoch: 8 March)

Event Time Altitude Azimuth Distance (km) Brightness Sun altitude
Rises 03:01:09 0° 286° (WNW) 4,880 - -37.9°
Reaches altitude 10° 03:04:37 10° 279° (W) 3,868 - -37.4°
Maximum altitude 03:13:17 37° 217° (SW) 2,286 - -36.3°
Exits shadow 03:19:43 17° 161° (SSE) 3,214 10.5 -35.4°
Drops below altitude 10° 03:21:40 10° 154° (SSE) 3,733 11.0 -35.2°
Sets 03:24:58 0° 146° (SSE) 4,693 11.6 -34.7°
